| time (UTC) | temp C | wind direction | speed KPH | gust KPH | rain 1hr cm | rain 24hr cm | rain mn cm | humidity % | barometer mb |
| 20260503203909 | 16 | 207 | 8.0 | 29.0 | 0.00 | 0.00 | 0.00 | 49 | 1011.6 |
| 20260503203259 | 16 | 244 | 9.7 | 29.0 | 0.00 | 0.00 | 0.00 | 48 | 1011.9 |
| 20260503202911 | 16 | 222 | 4.8 | 29.0 | 0.00 | 0.00 | 0.00 | 48 | 1012.0 |
| 20260503202257 | 16 | 208 | 12.9 | 29.0 | 0.00 | 0.00 | 0.00 | 47 | 1012.0 |
| 20260503201910 | 16 | 199 | 12.9 | 29.0 | 0.00 | 0.00 | 0.00 | 46 | 1012.0 |
| 20260503201257 | 16 | 206 | 9.7 | 29.0 | 0.00 | 0.00 | 0.00 | 46 | 1012.2 |
| 20260503200909 | 16 | 216 | 8.0 | 29.0 | 0.00 | 0.00 | 0.00 | 47 | 1012.2 |
| 20260503200258 | 16 | 212 | 12.9 | 29.0 | 0.00 | 0.00 | 0.00 | 46 | 1012.5 |
| 20260503195257 | 17 | 200 | 9.7 | 29.0 | 0.00 | 0.00 | 0.00 | 46 | 1012.6 |
| 20260503194909 | 16 | 192 | 11.3 | 29.0 | 0.00 | 0.00 | 0.00 | 46 | 1012.7 |
| 20260503194259 | 16 | 216 | 9.7 | 29.0 | 0.00 | 0.00 | 0.00 | 47 | 1012.9 |
| 20260503193910 | 16 | 194 | 9.7 | 29.0 | 0.00 | 0.00 | 0.00 | 46 | 1012.9 |
| 20260503193258 | 16 | 276 | 3.2 | 29.0 | 0.00 | 0.00 | 0.00 | 46 | 1013.0 |
| 20260503192913 | 16 | 232 | 4.8 | 29.0 | 0.00 | 0.00 | 0.00 | 50 | 1013.1 |
| 20260503192258 | 15 | 223 | 3.2 | 29.0 | 0.00 | 0.00 | 0.00 | 53 | 1013.3 |
| 20260503191909 | 15 | 211 | 3.2 | 29.0 | 0.00 | 0.00 | 0.00 | 53 | 1013.4 |
| 20260503191258 | 15 | 216 | 4.8 | 29.0 | 0.00 | 0.00 | 0.00 | 56 | 1013.9 |
| 20260503190911 | 14 | 206 | 8.0 | 29.0 | 0.00 | 0.00 | 0.00 | 58 | 1013.9 |
| 20260503190258 | 14 | 203 | 4.8 | 29.0 | 0.00 | 0.00 | 0.00 | 55 | 1014.0 |
| 20260503185909 | 14 | 225 | 4.8 | 29.0 | 0.00 | 0.00 | 0.00 | 55 | 1014.2 |
| 20260503185257 | 14 | 201 | 4.8 | 29.0 | 0.00 | 0.00 | 0.00 | 50 | 1014.2 |
| 20260503184910 | 14 | 271 | 3.2 | 29.0 | 0.00 | 0.00 | 0.00 | 52 | 1014.2 |
| 20260503184257 | 14 | 214 | 4.8 | 29.0 | 0.00 | 0.00 | 0.00 | 49 | 1014.3 |
| 20260503183910 | 14 | 210 | 4.8 | 29.0 | 0.00 | 0.00 | 0.00 | 50 | 1014.5 |
| 20260503183257 | 14 | 224 | 4.8 | 29.0 | 0.00 | 0.00 | 0.00 | 53 | 1014.8 |
| 20260503182258 | 14 | 194 | 1.6 | 29.0 | 0.00 | 0.00 | 0.00 | 55 | 1014.8 |
| 20260503181909 | 14 | 216 | 4.8 | 29.0 | 0.00 | 0.00 | 0.00 | 54 | 1014.8 |
| 20260503181258 | 13 | 184 | 1.6 | 29.0 | 0.00 | 0.00 | 0.00 | 55 | 1014.8 |
| 20260503180910 | 13 | 192 | 3.2 | 29.0 | 0.00 | 0.00 | 0.00 | 55 | 1014.8 |
| 20260503180257 | 13 | 235 | 1.6 | 29.0 | 0.00 | 0.00 | 0.00 | 56 | 1014.8 |
| 20260503175910 | 13 | 212 | 1.6 | 29.0 | 0.00 | 0.00 | 0.00 | 60 | 1014.7 |
| 20260503175257 | 13 | 182 | 1.6 | 29.0 | 0.00 | 0.00 | 0.00 | 59 | 1014.9 |
| 20260503174909 | 13 | 157 | 1.6 | 29.0 | 0.00 | 0.00 | 0.00 | 59 | 1015.0 |
| 20260503174257 | 12 | 211 | 3.2 | 29.0 | 0.00 | 0.00 | 0.00 | 61 | 1015.3 |
| 20260503173910 | 12 | 213 | 4.8 | 29.0 | 0.00 | 0.00 | 0.00 | 61 | 1015.5 |
| 20260503173258 | 12 | 238 | 1.6 | 29.0 | 0.00 | 0.00 | 0.00 | 61 | 1015.7 |
| 20260503172910 | 12 | 180 | 3.2 | 29.0 | 0.00 | 0.00 | 0.00 | 59 | 1015.7 |
| 20260503172300 | 12 | 227 | 3.2 | 29.0 | 0.00 | 0.00 | 0.00 | 59 | 1015.9 |
| 20260503171911 | 12 | 260 | 3.2 | 29.0 | 0.00 | 0.00 | 0.00 | 60 | 1015.9 |
| 20260503171257 | 13 | 324 | 3.2 | 29.0 | 0.00 | 0.00 | 0.00 | 56 | 1016.4 |
| 20260503170912 | 13 | 287 | 3.2 | 29.0 | 0.00 | 0.00 | 0.00 | 55 | 1016.4 |
| 20260503170302 | 13 | 322 | 4.8 | 29.0 | 0.00 | 0.00 | 0.00 | 50 | 1016.4 |
| 20260503150910 | 13 | 204 | 9.7 | 27.4 | 0.00 | 0.00 | 0.00 | 53 | 1017.2 |
| 20260503150258 | 13 | 211 | 4.8 | 27.4 | 0.00 | 0.00 | 0.00 | 52 | 1017.2 |
| 20260503140257 | 12 | 207 | 4.8 | 24.1 | 0.00 | 0.00 | 0.00 | 54 | 1017.6 |
| 20260503131256 | 10 | 216 | 3.2 | 14.5 | 0.00 | 0.00 | 0.00 | 55 | 1017.8 |
| 20260503130910 | 10 | 243 | 4.8 | 14.5 | 0.00 | 0.00 | 0.00 | 55 | 1017.7 |
| 20260503130258 | 10 | 259 | 1.6 | 14.5 | 0.00 | 0.00 | 0.00 | 56 | 1017.7 |
| 20260503110257 | 6 | 221 | 1.6 | 12.9 | 0.00 | 0.03 | 0.00 | 64 | 1017.3 |
| 20260503100258 | 6 | 228 | 1.6 | 11.3 | 0.00 | 0.03 | 0.00 | 64 | 1017.2 |
| 20260503090257 | 6 | 201 | 1.6 | 11.3 | 0.00 | 0.03 | 0.00 | 64 | 1017.4 |
| 20260503081256 | 6 | 209 | 0.0 | 8.0 | 0.00 | 0.03 | 0.00 | 64 | 1017.5 |
| 20260503080256 | 6 | 209 | 3.2 | 8.0 | 0.00 | 0.03 | 0.00 | 64 | 1017.5 |
| 20260503072910 | 6 | 225 | 0.0 | 6.4 | 0.00 | 0.03 | 0.00 | 64 | 1017.6 |
| 20260503072257 | 6 | 223 | 1.6 | 6.4 | 0.00 | 0.03 | 0.00 | 64 | 1017.7 |
| 20260503071909 | 6 | 214 | 1.6 | 6.4 | 0.00 | 0.03 | 0.00 | 65 | 1017.7 |
| 20260503071257 | 5 | 212 | 3.2 | 6.4 | 0.00 | 0.03 | 0.00 | 65 | 1017.7 |
| 20260503070909 | 5 | 225 | 1.6 | 4.8 | 0.00 | 0.03 | 0.00 | 66 | 1017.7 |
| 20260503070257 | 5 | 195 | 0.0 | 4.8 | 0.00 | 0.03 | 0.00 | 65 | 1017.7 |
| 20260503060257 | 5 | 221 | 1.6 | 3.2 | 0.00 | 0.03 | 0.00 | 66 | 1018.1 |
| 20260503054910 | 5 | 236 | 1.6 | 3.2 | 0.00 | 0.03 | 0.00 | 67 | 1018.2 |
| 20260503054258 | 5 | 248 | 0.0 | 3.2 | 0.00 | 0.03 | 0.00 | 67 | 1018.2 |
| 20260503053908 | 5 | 250 | 0.0 | 3.2 | 0.00 | 0.03 | 0.00 | 67 | 1018.2 |
| 20260503053256 | 5 | 313 | 1.6 | 3.2 | 0.00 | 0.03 | 0.00 | 68 | 1018.2 |
| 20260503052909 | 5 | 323 | 0.0 | 1.6 | 0.00 | 0.03 | 0.00 | 67 | 1018.3 |
| 20260503052257 | 5 | 323 | 0.0 | 1.6 | 0.00 | 0.03 | 0.00 | 67 | 1018.2 |
| 20260503051258 | 5 | 323 | 0.0 | 1.6 | 0.00 | 0.03 | 0.00 | 67 | 1018.3 |
| 20260503050909 | 5 | 323 | 0.0 | 1.6 | 0.00 | 0.03 | 0.00 | 67 | 1018.4 |
| 20260503050257 | 5 | 323 | 0.0 | 1.6 | 0.00 | 0.03 | 0.00 | 66 | 1018.4 |
| 20260503045909 | 5 | 323 | 0.0 | 1.6 | 0.00 | 0.03 | 0.00 | 66 | 1018.5 |
| 20260503045257 | 5 | 323 | 0.0 | 1.6 | 0.00 | 0.03 | 0.00 | 66 | 1018.5 |
| 20260503044258 | 5 | 323 | 0.0 | 1.6 | 0.00 | 0.03 | 0.00 | 66 | 1018.4 |
| 20260503043908 | 5 | 323 | 0.0 | 1.6 | 0.00 | 0.03 | 0.00 | 66 | 1018.4 |
| 20260503043257 | 5 | 323 | 0.0 | 1.6 | 0.00 | 0.03 | 0.00 | 66 | 1018.4 |
| 20260503042909 | 5 | 323 | 0.0 | 1.6 | 0.00 | 0.03 | 0.00 | 66 | 1018.4 |
| 20260503042257 | 5 | 323 | 0.0 | 1.6 | 0.00 | 0.03 | 0.00 | 66 | 1018.4 |
| 20260503041910 | 5 | 327 | 0.0 | 1.6 | 0.00 | 0.03 | 0.00 | 66 | 1018.4 |
| 20260503041258 | 5 | 327 | 0.0 | 1.6 | 0.00 | 0.03 | 0.00 | 66 | 1018.4 |
| 20260503040909 | 5 | 327 | 0.0 | 1.6 | 0.00 | 0.03 | 0.00 | 66 | 1018.4 |
| 20260503040257 | 5 | 327 | 0.0 | 0.0 | 0.00 | 0.03 | 0.00 | 67 | 1018.4 |
| 20260503035257 | 5 | 327 | 0.0 | 24.1 | 0.00 | 0.03 | 0.03 | 67 | 1018.4 |
| 20260503034909 | 5 | 327 | 0.0 | 24.1 | 0.00 | 0.03 | 0.03 | 67 | 1018.4 |
| 20260503034258 | 5 | 327 | 0.0 | 24.1 | 0.00 | 0.03 | 0.03 | 68 | 1018.5 |
| 20260503033910 | 5 | 327 | 0.0 | 24.1 | 0.00 | 0.03 | 0.03 | 68 | 1018.5 |
| 20260503033257 | 5 | 327 | 0.0 | 24.1 | 0.00 | 0.03 | 0.03 | 67 | 1018.5 |
| 20260503032914 | 5 | 327 | 0.0 | 24.1 | 0.00 | 0.03 | 0.03 | 67 | 1018.5 |
| 20260503032259 | 5 | 327 | 0.0 | 24.1 | 0.00 | 0.03 | 0.03 | 68 | 1018.5 |
| 20260503031909 | 5 | 327 | 0.0 | 24.1 | 0.00 | 0.03 | 0.03 | 68 | 1018.5 |
| 20260503031258 | 5 | 327 | 0.0 | 24.1 | 0.00 | 0.03 | 0.03 | 71 | 1018.6 |
| 20260503030910 | 4 | 327 | 1.6 | 24.1 | 0.00 | 0.03 | 0.03 | 72 | 1018.5 |
| 20260503030257 | 4 | 327 | 0.0 | 24.1 | 0.00 | 0.03 | 0.03 | 71 | 1018.5 |
| 20260503025909 | 4 | 327 | 0.0 | 24.1 | 0.00 | 0.03 | 0.03 | 71 | 1018.5 |
| 20260503025259 | 5 | 327 | 0.0 | 24.1 | 0.00 | 0.03 | 0.03 | 71 | 1018.6 |
| 20260503024909 | 5 | 327 | 0.0 | 24.1 | 0.00 | 0.03 | 0.03 | 71 | 1018.6 |
| 20260503024256 | 5 | 327 | 0.0 | 24.1 | 0.00 | 0.03 | 0.03 | 71 | 1018.6 |
| 20260503023910 | 5 | 327 | 0.0 | 24.1 | 0.00 | 0.03 | 0.03 | 70 | 1018.6 |
| 20260503023257 | 5 | 327 | 0.0 | 24.1 | 0.00 | 0.03 | 0.03 | 69 | 1018.6 |
| 20260503022909 | 5 | 327 | 0.0 | 24.1 | 0.00 | 0.03 | 0.03 | 69 | 1018.6 |
| 20260503022258 | 5 | 327 | 0.0 | 24.1 | 0.00 | 0.03 | 0.03 | 68 | 1018.5 |
| 20260503021910 | 5 | 327 | 0.0 | 24.1 | 0.00 | 0.03 | 0.03 | 68 | 1018.5 |
| 20260503021257 | 5 | 327 | 0.0 | 24.1 | 0.00 | 0.03 | 0.03 | 67 | 1018.5 |
| 20260503020909 | 5 | 327 | 0.0 | 24.1 | 0.00 | 0.03 | 0.03 | 66 | 1018.5 |
| 20260503020257 | 6 | 327 | 0.0 | 24.1 | 0.00 | 0.03 | 0.03 | 66 | 1018.5 |
| 20260503015909 | 6 | 327 | 0.0 | 24.1 | 0.00 | 0.03 | 0.03 | 65 | 1018.5 |
| 20260503015257 | 6 | 327 | 0.0 | 24.1 | 0.00 | 0.03 | 0.03 | 64 | 1018.4 |
| 20260503014908 | 6 | 327 | 0.0 | 24.1 | 0.00 | 0.03 | 0.03 | 64 | 1018.3 |
| 20260503014257 | 6 | 327 | 0.0 | 24.1 | 0.00 | 0.03 | 0.03 | 63 | 1018.3 |
| 20260503013909 | 6 | 327 | 0.0 | 24.1 | 0.00 | 0.03 | 0.03 | 62 | 1018.3 |
| 20260503013256 | 7 | 327 | 0.0 | 24.1 | 0.00 | 0.03 | 0.03 | 61 | 1018.3 |
| 20260503012909 | 7 | 327 | 0.0 | 24.1 | 0.00 | 0.03 | 0.03 | 62 | 1018.3 |
| 20260503012257 | 7 | 327 | 0.0 | 24.1 | 0.00 | 0.03 | 0.03 | 62 | 1018.2 |
| 20260503011908 | 7 | 327 | 0.0 | 24.1 | 0.00 | 0.03 | 0.03 | 61 | 1018.2 |
| 20260503011257 | 7 | 327 | 0.0 | 24.1 | 0.00 | 0.03 | 0.03 | 60 | 1018.2 |
| 20260503010911 | 7 | 327 | 0.0 | 24.1 | 0.00 | 0.03 | 0.03 | 59 | 1018.2 |
| 20260503010257 | 8 | 327 | 0.0 | 24.1 | 0.00 | 0.03 | 0.03 | 58 | 1018.2 |
| 20260503005910 | 8 | 327 | 0.0 | 24.1 | 0.00 | 0.03 | 0.03 | 57 | 1018.1 |
| 20260503005259 | 8 | 327 | 0.0 | 24.1 | 0.00 | 0.03 | 0.03 | 54 | 1018.2 |
| 20260503004910 | 8 | 327 | 0.0 | 24.1 | 0.00 | 0.03 | 0.03 | 52 | 1018.2 |
| 20260503004259 | 9 | 327 | 0.0 | 24.1 | 0.00 | 0.03 | 0.03 | 49 | 1018.2 |
| 20260503003911 | 9 | 327 | 0.0 | 24.1 | 0.00 | 0.03 | 0.03 | 49 | 1018.2 |
| 20260503003257 | 10 | 327 | 0.0 | 24.1 | 0.00 | 0.03 | 0.03 | 47 | 1018.1 |
| 20260503002910 | 10 | 327 | 0.0 | 24.1 | 0.00 | 0.03 | 0.03 | 45 | 1018.1 |
| 20260503002258 | 10 | 327 | 0.0 | 24.1 | 0.00 | 0.03 | 0.03 | 42 | 1018.1 |
| 20260503001911 | 10 | 327 | 0.0 | 24.1 | 0.00 | 0.03 | 0.03 | 41 | 1018.1 |
| 20260503001300 | 10 | 327 | 0.0 | 24.1 | 0.00 | 0.03 | 0.03 | 41 | 1018.1 |
| 20260503000910 | 10 | 327 | 0.0 | 24.1 | 0.00 | 0.03 | 0.03 | 40 | 1018.1 |
| 20260503000259 | 10 | 327 | 0.0 | 24.1 | 0.00 | 0.03 | 0.03 | 41 | 1018.0 |
| 20260502235910 | 10 | 327 | 0.0 | 24.1 | 0.00 | 0.03 | 0.03 | 40 | 1017.9 |
| 20260502235257 | 10 | 327 | 0.0 | 24.1 | 0.00 | 0.03 | 0.03 | 42 | 1017.9 |
| 20260502234911 | 11 | 327 | 0.0 | 24.1 | 0.00 | 0.03 | 0.03 | 42 | 1017.9 |
| 20260502234259 | 11 | 337 | 0.0 | 24.1 | 0.00 | 0.03 | 0.03 | 42 | 1018.1 |
| 20260502233910 | 11 | 339 | 0.0 | 24.1 | 0.00 | 0.03 | 0.03 | 40 | 1018.1 |
| 20260502233300 | 11 | 309 | 0.0 | 24.1 | 0.00 | 0.03 | 0.03 | 41 | 1018.1 |
| 20260502232913 | 11 | 306 | 1.6 | 24.1 | 0.00 | 0.03 | 0.03 | 40 | 1018.1 |
| 20260502232258 | 11 | 324 | 0.0 | 24.1 | 0.00 | 0.03 | 0.03 | 39 | 1018.2 |
| 20260502231258 | 11 | 311 | 1.6 | 24.1 | 0.00 | 0.03 | 0.03 | 40 | 1018.3 |
| 20260502230909 | 11 | 342 | 0.0 | 24.1 | 0.00 | 0.03 | 0.03 | 41 | 1018.3 |
| 20260502230258 | 11 | 321 | 1.6 | 24.1 | 0.00 | 0.03 | 0.03 | 39 | 1018.2 |
| 20260502225909 | 11 | 307 | 0.0 | 24.1 | 0.00 | 0.03 | 0.03 | 38 | 1018.2 |
| 20260502225259 | 11 | 303 | 1.6 | 24.1 | 0.00 | 0.03 | 0.03 | 40 | 1018.3 |
| 20260502224911 | 11 | 299 | 0.0 | 24.1 | 0.00 | 0.03 | 0.03 | 40 | 1018.3 |
| 20260502224257 | 11 | 323 | 1.6 | 24.1 | 0.00 | 0.03 | 0.03 | 40 | 1018.3 |
| 20260502223910 | 11 | 290 | 1.6 | 24.1 | 0.00 | 0.03 | 0.03 | 39 | 1018.3 |
| 20260502223258 | 11 | 283 | 1.6 | 24.1 | 0.00 | 0.03 | 0.03 | 40 | 1018.3 |
| 20260502222910 | 11 | 289 | 1.6 | 24.1 | 0.00 | 0.03 | 0.03 | 38 | 1018.3 |
| 20260502222257 | 11 | 307 | 1.6 | 24.1 | 0.00 | 0.03 | 0.03 | 38 | 1018.3 |
| 20260502221915 | 12 | 302 | 3.2 | 24.1 | 0.00 | 0.03 | 0.03 | 34 | 1018.3 |
| 20260502221257 | 12 | 283 | 1.6 | 24.1 | 0.00 | 0.03 | 0.03 | 37 | 1018.3 |
| 20260502220910 | 12 | 260 | 3.2 | 24.1 | 0.00 | 0.03 | 0.03 | 38 | 1018.3 |
| 20260502220258 | 12 | 305 | 4.8 | 24.1 | 0.00 | 0.03 | 0.03 | 36 | 1018.3 |
| 20260502215911 | 12 | 277 | 1.6 | 24.1 | 0.00 | 0.03 | 0.03 | 37 | 1018.3 |
| 20260502215257 | 12 | 324 | 1.6 | 24.1 | 0.00 | 0.03 | 0.03 | 40 | 1018.3 |
| 20260502214258 | 12 | 50 | 4.8 | 24.1 | 0.00 | 0.03 | 0.03 | 38 | 1018.4 |
| 20260502213911 | 12 | 343 | 3.2 | 24.1 | 0.00 | 0.03 | 0.03 | 37 | 1018.3 |
| 20260502213257 | 12 | 53 | 4.8 | 24.1 | 0.00 | 0.03 | 0.03 | 38 | 1018.3 |
| 20260502212910 | 12 | 348 | 4.8 | 24.1 | 0.00 | 0.03 | 0.03 | 38 | 1018.3 |
| 20260502212257 | 12 | 7 | 8.0 | 24.1 | 0.00 | 0.03 | 0.03 | 37 | 1018.2 |
| 20260502211910 | 12 | 346 | 4.8 | 24.1 | 0.00 | 0.03 | 0.03 | 37 | 1018.2 |
| 20260502211258 | 12 | 299 | 1.6 | 24.1 | 0.00 | 0.03 | 0.03 | 39 | 1018.2 |
| 20260502210910 | 12 | 64 | 3.2 | 24.1 | 0.00 | 0.03 | 0.03 | 36 | 1018.3 |
| 20260502210258 | 12 | 1 | 3.2 | 24.1 | 0.00 | 0.03 | 0.03 | 40 | 1018.3 |
| 20260502205911 | 12 | 335 | 3.2 | 24.1 | 0.00 | 0.03 | 0.03 | 37 | 1018.3 |
| 20260502205259 | 13 | 317 | 8.0 | 24.1 | 0.00 | 0.03 | 0.03 | 37 | 1018.4 |
| 20260502204913 | 13 | 317 | 9.7 | 24.1 | 0.00 | 0.03 | 0.03 | 36 | 1018.3 |
| 20260502204257 | 12 | 198 | 3.2 | 22.5 | 0.00 | 0.03 | 0.03 | 37 | 1018.3 |